FENGYUN 1C DEB, 31628

Orbit data source: Space-Track

FENGYUN 1C DEB, 31628 is space debris in SSO originally from a launch on Mon, 10 May 1999 UTC launched from the Taiyaun Space Center, China (TSC). Fengyun 1C debris stems from the Chinese weather satellite Fengyun-1C, which was intentionally destroyed by a Chinese anti-satellite missile in 2007. This event dramatically increased the amount of space debris, with thousands of trackable fragments posing hazards to satellites and human spaceflight. The Fengyun 1C debris cloud has become a focal point in discussions about space sustainability and the need for international regulations to prevent the creation of new debris.

Loading next visibility...
Identifier
31628, 1999-025CAJ
Orbit
SSO
Country
Flag of CNCN / PRC
Related business
Manufacturer
Unknown
Mission
Spacecraft
Bus & Motor
Unknown
Mass
Unknown
Launch date (UTC)
1999-05-10 (27 years ago)
Launch vehicle
Unknown
Launch site
Taiyaun Space Center, China (TSC)
Object type
Payload
Rocket body
Debris
Shape & HBR
Unknown shape, 0.1 m
Radar Cross Section
Small (<0.1 m²)

Expand to show TLE details & history
Last TLE update: 1 day ago

TLE from 1 day ago
0 FENGYUN 1C DEB
1 31628U 99025CAJ 26061.62094388  .00002924  00000-0  22684-2 0  9991
2 31628 102.2720 306.1392 0170241  28.2468 332.7783 13.87265969944078
Epoch: 2026-03-02T14:54Z
TLE epoch observation values (Epoch: 2026-03-02T14:54:09.551Z)
Latitude
-0.00008°
Longitude
-77.81231°
Altitude
830.639 km
Speed
7.494 km/s
True Right ascension
20h 24m 33s
True Declination
0° 00' 00"
Sunlit
Object was in daylight at epoch
Visualization orbit readout
Latitude
Unknown
Longitude
Unknown
Altitude
Unknown
Speed
Unknown
Apparent Right ascension
Unknown
Apparent Declination
Unknown
Sunlit
N/A
Visualization observer readout
Local Sidereal Time
18:39:30
Azimuth
Unknown
Elevation
Unknown
Doppler factor
Unknown
Orbital elements
Apogee altitude
1,060.14 km
Perigee altitude
811.12 km
Semi-major axis
7,313.767 km
Eccentricity
0.01702
Inclination
102.272°
RAAN
306.1392°
Arg. of periapsis
28.2468°
True anomaly
331.86877°
Mean anomaly
332.7783°
Eccentric anomaly
332.32527°
Mean motion
3.47002 °/min
Orbital period
103.75 mins
BSTAR
0.0022684
Loading maneuver chart data...
Computing Atmospheric mass density...
Loading historical data...
Loading historical data...
Loading historical data...
Loading historical data...
Loading historical data...
Loading historical data...
Loading historical data...

Documentation

Showing up to 5 results
|